timestamp,surface_pressure_avg,surface_temp_avg,battery_voltage,lat,long
2021-11-15 00:09:00+00:00,277.3798,8.78,12.49,47.84626,-54.09684
2021-11-15 00:19:01+00:00,279.0964,8.79,12.49,47.84626,-54.09684
2021-11-15 00:29:01+00:00,273.3731,8.8,12.49,47.84626,-54.09684
2021-11-15 00:39:01+00:00,263.7414,8.8,12.49,47.84626,-54.09684
2021-11-15 00:49:01+00:00,261.5531,8.8,12.49,47.84626,-54.09684
2021-11-15 00:59:01+00:00,263.6364,8.8,12.49,47.84626,-54.09684
2021-11-15 01:09:01+00:00,256.4931,8.8,12.49,47.84626,-54.09684
2021-11-15 01:19:00+00:00,247.6764,8.8,12.49,47.84626,-54.09684
2021-11-15 01:29:00+00:00,248.1531,8.8,12.49,47.84626,-54.09684
2021-11-15 01:39:00+00:00,245.9864,8.9,12.49,47.84626,-54.09684
2021-11-15 01:49:00+00:00,239.8181,8.8,12.49,47.84626,-54.09684
2021-11-15 01:59:00+00:00,243.9698,8.8,12.49,47.84626,-54.09684
2021-11-15 02:09:00+00:00,246.6181,8.8,12.49,47.84626,-54.09684
2021-11-15 02:19:00+00:00,238.9864,8.8,12.49,47.84626,-54.09684
2021-11-15 02:29:00+00:00,235.6115,8.79,12.49,47.84626,-54.09684
2021-11-15 02:39:00+00:00,244.9497,8.78,12.49,47.84626,-54.09684
2021-11-15 02:49:00+00:00,245.3031,8.79,12.49,47.84626,-54.09684
2021-11-15 02:59:00+00:00,239.3197,8.79,12.49,47.84626,-54.09684
2021-11-15 03:09:00+00:00,237.7947,8.8,12.49,47.84626,-54.09684
2021-11-15 03:19:00+00:00,243.2014,8.79,12.49,47.84626,-54.09684
2021-11-15 03:29:00+00:00,239.5714,8.79,12.49,47.84626,-54.09684
2021-11-15 03:39:00+00:00,232.9964,8.79,12.49,47.84626,-54.09684
2021-11-15 03:49:00+00:00,240.9464,8.78,12.49,47.84626,-54.09684
2021-11-15 03:59:00+00:00,251.5131,8.79,12.49,47.84626,-54.09684
2021-11-15 04:09:00+00:00,250.7864,8.79,12.49,47.84626,-54.09684
2021-11-15 04:19:00+00:00,249.4464,8.79,12.49,47.84626,-54.09684
2021-11-15 04:29:00+00:00,252.6897,8.8,12.49,47.84626,-54.09684
2021-11-15 04:39:00+00:00,255.4831,8.8,12.49,47.84626,-54.09684
2021-11-15 04:49:00+00:00,254.5481,8.89,12.49,47.84626,-54.09684
2021-11-15 04:59:00+00:00,254.5998,8.8,12.49,47.84626,-54.09684
2021-11-15 05:09:00+00:00,261.1214,8.8,12.49,47.84626,-54.09684
2021-11-15 05:19:00+00:00,273.0698,8.8,12.49,47.84626,-54.09684
2021-11-15 05:29:00+00:00,277.2931,8.79,12.49,47.84626,-54.09684
2021-11-15 05:39:00+00:00,273.9763,8.79,12.49,47.84626,-54.09684
2021-11-15 05:49:00+00:00,277.3281,8.79,12.49,47.84626,-54.09684
2021-11-15 05:59:00+00:00,287.5764,8.79,12.49,47.84626,-54.09684
2021-11-15 06:09:00+00:00,290.4997,8.79,12.49,47.84626,-54.09684
2021-11-15 06:19:00+00:00,289.5863,8.79,12.49,47.84626,-54.09684
2021-11-15 06:29:00+00:00,296.5814,8.8,12.49,47.84626,-54.09684
2021-11-15 06:39:00+00:00,305.758,8.8,12.49,47.84626,-54.09684
2021-11-15 06:49:00+00:00,304.483,8.8,12.49,47.84626,-54.09684
2021-11-15 06:59:00+00:00,302.7397,8.8,12.49,47.84626,-54.09684
2021-11-15 07:09:00+00:00,310.9397,8.8,12.49,47.84626,-54.09684
2021-11-15 07:19:00+00:00,320.9997,8.8,12.49,47.84626,-54.09684
2021-11-15 07:29:00+00:00,320.1696,8.8,12.49,47.84626,-54.09684
2021-11-15 07:39:00+00:00,320.668,8.8,12.49,47.84626,-54.09684
2021-11-15 07:49:00+00:00,329.8563,8.8,12.49,47.84626,-54.09684
2021-11-15 07:59:00+00:00,334.538,8.8,12.49,47.84626,-54.09684
2021-11-15 08:09:00+00:00,330.3164,8.79,12.49,47.84626,-54.09684
2021-11-15 08:19:01+00:00,335.8213,8.78,12.49,47.84626,-54.09684
2021-11-15 08:29:01+00:00,342.658,8.78,12.49,47.84626,-54.09684
2021-11-15 08:39:01+00:00,343.4796,8.76,12.49,47.84626,-54.09684
2021-11-15 08:49:01+00:00,344.1763,8.76,12.49,47.84626,-54.09684
2021-11-15 08:59:01+00:00,349.3696,8.77,12.49,47.84626,-54.09684
2021-11-15 09:09:01+00:00,351.8046,8.77,12.49,47.84626,-54.09684
2021-11-15 09:19:01+00:00,353.4263,8.77,12.49,47.84626,-54.09684
2021-11-15 09:29:01+00:00,353.5913,8.77,12.49,47.84626,-54.09684
2021-11-15 09:39:01+00:00,349.9346,8.77,12.49,47.84626,-54.09684
2021-11-15 09:49:01+00:00,349.1647,8.77,12.49,47.84626,-54.09684
2021-11-15 09:59:01+00:00,350.0413,8.77,12.49,47.84626,-54.09684
2021-11-15 10:09:01+00:00,344.6513,8.77,12.49,47.84626,-54.09684
2021-11-15 10:19:01+00:00,337.9764,8.77,12.49,47.84626,-54.09684
2021-11-15 10:29:01+00:00,338.7413,8.77,12.49,47.84626,-54.09684
2021-11-15 10:39:01+00:00,335.788,8.78,12.49,47.84626,-54.09684
2021-11-15 10:49:01+00:00,323.5963,8.78,12.49,47.84626,-54.09684
2021-11-15 10:59:01+00:00,316.973,8.78,12.49,47.84626,-54.09684
2021-11-15 11:09:01+00:00,316.313,8.78,12.49,47.84626,-54.09684
2021-11-15 11:19:01+00:00,312.1113,8.78,12.97,47.84626,-54.09684
2021-11-15 11:29:01+00:00,302.3814,8.79,12.97,47.84626,-54.09684
2021-11-15 11:39:01+00:00,301.033,8.79,12.97,47.84626,-54.09684
2021-11-15 11:49:01+00:00,291.5947,8.8,12.97,47.84626,-54.09684
2021-11-15 11:59:01+00:00,279.5147,8.79,12.97,47.84626,-54.09684
2021-11-15 12:09:01+00:00,273.2048,8.79,12.97,47.84626,-54.09684
2021-11-15 12:19:00+00:00,272.6714,8.8,13.76,47.84626,-54.09684
2021-11-15 12:29:00+00:00,264.1814,8.79,13.76,47.84626,-54.09684
2021-11-15 12:39:00+00:00,253.9981,8.8,13.76,47.84626,-54.09684
2021-11-15 12:49:00+00:00,250.1581,8.79,13.76,47.84626,-54.09684
2021-11-15 12:59:00+00:00,250.7381,8.79,13.76,47.84626,-54.09684
2021-11-15 13:09:00+00:00,243.5847,8.8,13.76,47.84626,-54.09684
2021-11-15 13:19:01+00:00,237.4731,8.79,14.4,47.84626,-54.09684
2021-11-15 13:29:01+00:00,239.213,8.79,14.4,47.84626,-54.09684
2021-11-15 13:39:01+00:00,238.2148,8.79,14.4,47.84626,-54.09684
2021-11-15 13:49:01+00:00,229.1498,8.8,14.4,47.84626,-54.09684
2021-11-15 13:59:01+00:00,222.6431,8.8,14.4,47.84626,-54.09684
2021-11-15 14:09:01+00:00,223.9898,8.8,14.4,47.84626,-54.09684
2021-11-15 14:19:00+00:00,219.6481,8.8,14.56,47.84626,-54.09684
2021-11-15 14:29:00+00:00,210.6348,8.8,14.56,47.84626,-54.09684
2021-11-15 14:39:00+00:00,211.7731,8.8,14.56,47.84626,-54.09684
2021-11-15 14:49:00+00:00,217.1831,8.8,14.56,47.84626,-54.09684
2021-11-15 14:59:00+00:00,215.7264,8.8,14.56,47.84626,-54.09684
2021-11-15 15:09:00+00:00,212.8181,8.8,14.56,47.84626,-54.09684
2021-11-15 15:19:01+00:00,216.2981,8.8,14.0,47.84626,-54.09684
2021-11-15 15:29:01+00:00,219.3314,8.8,14.0,47.84626,-54.09684
2021-11-15 15:39:01+00:00,216.8614,8.81,14.0,47.84626,-54.09684
2021-11-15 15:49:01+00:00,218.9631,8.88,14.0,47.84626,-54.09684
2021-11-15 15:59:01+00:00,223.6764,8.89,14.0,47.84626,-54.09684
2021-11-15 16:09:01+00:00,221.4581,8.84,14.0,47.84626,-54.09684
2021-11-15 16:19:01+00:00,219.7898,8.86,14.32,47.84626,-54.09684
2021-11-15 16:29:01+00:00,233.3414,8.87,14.32,47.84626,-54.09684
2021-11-15 16:39:01+00:00,241.0731,8.8,14.32,47.84626,-54.09684
2021-11-15 16:49:01+00:00,239.7581,8.8,14.32,47.84626,-54.09684
2021-11-15 16:59:01+00:00,243.0747,8.8,14.32,47.84626,-54.09684
2021-11-15 17:09:01+00:00,252.5798,8.8,14.32,47.84626,-54.09684
2021-11-15 17:19:00+00:00,248.5113,8.8,14.32,47.84626,-54.09684
2021-11-15 17:29:00+00:00,250.2498,8.8,14.32,47.84626,-54.09684
2021-11-15 17:39:00+00:00,260.6914,8.8,14.32,47.84626,-54.09684
2021-11-15 17:49:00+00:00,265.958,8.8,14.32,47.84626,-54.09684
2021-11-15 17:59:00+00:00,259.0114,8.8,14.32,47.84626,-54.09684
2021-11-15 18:09:00+00:00,263.0414,8.8,14.32,47.84626,-54.09684
2021-11-15 18:19:00+00:00,275.9847,8.8,13.6,47.84626,-54.09684
2021-11-15 18:29:00+00:00,282.3214,8.8,13.6,47.84626,-54.09684
2021-11-15 18:39:00+00:00,277.8497,8.8,13.6,47.84626,-54.09684
2021-11-15 18:49:00+00:00,282.3647,8.8,13.6,47.84626,-54.09684
2021-11-15 18:59:00+00:00,293.9214,8.8,13.6,47.84626,-54.09684
2021-11-15 19:09:00+00:00,298.4814,8.8,13.6,47.84626,-54.09684
2021-11-15 19:19:01+00:00,299.8713,8.8,13.29,47.84626,-54.09684
2021-11-15 19:29:01+00:00,310.123,8.8,13.29,47.84626,-54.09684
2021-11-15 19:39:01+00:00,320.9363,8.8,13.29,47.84626,-54.09684
2021-11-15 19:49:01+00:00,328.8979,8.8,13.29,47.84626,-54.09684
2021-11-15 19:59:01+00:00,335.358,8.8,13.29,47.84626,-54.09684
2021-11-15 20:09:01+00:00,344.06800000000015,8.8,13.29,47.84626,-54.09684
2021-11-15 20:19:01+00:00,340.2363,8.8,12.97,47.84626,-54.09684
2021-11-15 20:29:01+00:00,333.2396,8.8,12.97,47.84626,-54.09684
2021-11-15 20:39:01+00:00,336.8864,8.8,12.97,47.84626,-54.09684
2021-11-15 20:49:01+00:00,338.6263,8.8,12.97,47.84626,-54.09684
2021-11-15 20:59:01+00:00,343.9546,8.8,12.97,47.84626,-54.09684
2021-11-15 21:09:01+00:00,349.5997,8.8,12.97,47.84626,-54.09684
2021-11-15 21:19:01+00:00,355.2012,8.8,12.73,47.84626,-54.09684
2021-11-15 21:29:01+00:00,364.0163,8.8,12.73,47.84626,-54.09684
2021-11-15 21:39:01+00:00,368.2863,8.8,12.73,47.84626,-54.09684
2021-11-15 21:49:01+00:00,369.0979,8.8,12.73,47.84626,-54.09684
2021-11-15 21:59:01+00:00,369.3763,8.8,12.73,47.84626,-54.09684
2021-11-15 22:09:01+00:00,369.4896,8.8,12.73,47.84626,-54.09684
2021-11-15 22:19:01+00:00,365.158,8.8,12.73,47.84626,-54.09684
2021-11-15 22:29:01+00:00,347.3346,8.85,12.73,47.84626,-54.09684
2021-11-15 22:39:01+00:00,333.023,8.88,12.73,47.84626,-54.09684
2021-11-15 22:49:01+00:00,336.2979,8.85,12.73,47.84626,-54.09684
2021-11-15 22:59:01+00:00,358.1229,8.9,12.73,47.84626,-54.09684
2021-11-15 23:09:01+00:00,358.8546,8.8,12.73,47.84626,-54.09684
2021-11-15 23:19:01+00:00,345.2963,8.8,12.73,47.84626,-54.09684
2021-11-15 23:29:01+00:00,348.11300000000006,8.8,12.73,47.84626,-54.09684
2021-11-15 23:39:01+00:00,341.4363,8.8,12.73,47.84626,-54.09684
2021-11-15 23:49:01+00:00,316.9213,8.8,12.73,47.84626,-54.09684
2021-11-15 23:59:01+00:00,297.1697,8.8,12.73,47.84626,-54.09684
